[[{"header":{"parameterUnit":"m.s-1","parameterCategory":2,"la1":30.2991,"la2":30.254,"lo1":-89.0895,"lo2":-89.0444,"dy":0.0017,"dx":0.0017,"nx":28,"ny":28,"refTime":"2025-04-16T03:00:00:Z","depth":"0","parameterNumber":2,"parameterNumberName":"U-component_of_CURRENTS"},"data":[0,0,0,0,0,0,0,0,0,0,0,0,0,0,0,0,0,0,0,0,0,0,0,0,0,0,0,0,0,0,0,0,0,0,0,0,0,0,0,0,0,0,0,0,0,0,0,0,0,0,0,0,0,0,0,0,0,0,0.2692,0.2692,0,0.2716,0.2716,0.2716,0.2707,0.2706,0.2706,0.2706,0.2707,0.2708,0.2708,0,0,0,0,0,0,0,0,0,0,0,0,0,0.2659,0.2659,0.2692,0.2693,0.2693,0.2716,0.2716,0.2716,0.2707,0.2706,0.2706,0.2706,0.2707,0.2708,0.2708,0,0,0,0,0,0,0,0,0,0,0,0,0,0.2675,0.2659,0.2692,0.2693,0.2693,0.2716,0.2716,0.2716,0.2707,0.2706,0.2706,0.2705,0.2707,0.2708,0.2708,0.2722,0,0,0.271,0.271,0,0,0,0,0,0,0,0,0.2674,0.2675,0.2692,0.2693,0.2693,0.271,0.2705,0.2717,0.2707,0.2699,0.2706,0.2705,0.2708,0.2708,0.2711,0.2722,0.2722,0.271,0.271,0.271,0.2711,0,0,0,0,0,0,0,0.2672,0.2675,0.2699,0.2693,0.2694,0.2699,0.27,0.2707,0.2704,0.27,0.27,0.2706,0.2708,0.2711,0.2711,0.2722,0.271,0.271,0.2711,0.2711,0.2776,0.2778,0,0,0,0,0,0,0.2674,0.2673,0.2698,0.27,0.2685,0.27,0.2701,0.2703,0.2705,0.2705,0.2707,0.2706,0.271,0.271,0.2711,0.2748,0.271,0.2711,0.2711,0.2775,0.2777,0.2778,0,0,0,0,0,0,0.2673,0.2675,0.2697,0.2689,0.2693,0.2701,0.2703,0.2704,0.271,0.271,0.271,0.2712,0.271,0.271,0.2728,0.2747,0.2711,0.2712,0.2773,0.2775,0.2777,0.2808,0,0,0,0,0,0,0.2672,0.2675,0.2677,0.2689,0.2693,0.2714,0.2704,0.2705,0.2715,0.2714,0.2715,0.2715,0.2709,0.2727,0.2729,0.2747,0.2712,0.2771,0.2774,0.2777,0.2805,0.2811,0.2816,0,0,0,0,0,0.267,0.2675,0.2677,0.268,0.2695,0.2715,0.2718,0.272,0.2716,0.2723,0.2728,0.2715,0.2745,0.2729,0.273,0.2749,0.277,0.2773,0.2777,0.2803,0.281,0.2815,0,0,0,0,0,0,0.266,0.2675,0.2677,0.2686,0.2702,0.2715,0.2722,0.2726,0.2735,0.2734,0.273,0.273,0.2756,0.2752,0.2734,0.2778,0.2757,0.2761,0.2777,0.2783,0.2788,0.2789,0.2713,0,0,0,0,0,0.266,0.2668,0.2685,0.2693,0.2702,0.2713,0.2722,0.2726,0.2737,0.274,0.2742,0.2752,0.277,0.2775,0.2787,0.2807,0.2823,0.2823,0.2828,0.2832,0.2835,0.2888,0.2898,0.2789,0.2789,0.2789,0,0,0.2659,0.2669,0.2673,0.2692,0.2703,0.2721,0.2716,0.2734,0.2748,0.274,0.2758,0.277,0.2782,0.2808,0.2818,0.2804,0.2873,0.2836,0.284,0.284,0.2893,0.2903,0.2913,0.2791,0.279,0.279,0,0,0.2661,0.267,0.2677,0.2693,0.2716,0.2728,0.2735,0.2753,0.276,0.2784,0.2788,0.2813,0.2829,0.2846,0.2856,0.29,0.2903,0.2904,0.2925,0.2977,0.2986,0.2995,0.3031,0.3042,0.2902,0.2902,0.2903,0,0.2659,0.2668,0.2683,0.2698,0.2712,0.2733,0.2747,0.2766,0.2787,0.2805,0.2793,0.2849,0.285,0.2898,0.2909,0.2911,0.2936,0.2897,0.2983,0.2992,0.3,0.3035,0.3047,0.2904,0.2904,0.2904,0.2904,0,0.2666,0.2677,0.2686,0.2711,0.273,0.2747,0.2776,0.2798,0.2812,0.2837,0.2885,0.2896,0.2931,0.2937,0.2932,0.2993,0.2992,0.2987,0.2964,0.3013,0.3047,0.3059,0.2907,0.2906,0.2906,0.2905,0,0,0.2647,0.2682,0.2684,0.2695,0.2736,0.275,0.2789,0.2833,0.2869,0.2895,0.2943,0.2973,0.2991,0.3004,0.3009,0.3042,0.3113,0.3035,0.3037,0.3065,0.3225,0.3206,0.3217,0.3126,0.3128,0.313,0.3226,0,0.2645,0.2665,0.2688,0.2713,0.2727,0.2765,0.2804,0.2851,0.2894,0.295,0.2985,0.3033,0.3015,0.3036,0.3071,0.3115,0.3147,0.3087,0.3178,0.318,0.3154,0.3231,0.3143,0.322,0.3238,0.324,0.3241,0,0.2637,0.2654,0.267,0.2714,0.2725,0.2747,0.2814,0.2855,0.295,0.2989,0.3053,0.3087,0.3156,0.3121,0.3224,0.319,0.3207,0.3226,0.323,0.321,0.3185,0.3175,0.3241,0.32,0.326,0.3258,0.3257,0,0.2601,0.2638,0.2647,0.2661,0.272,0.2737,0.2776,0.2865,0.2925,0.3021,0.3094,0.3162,0.3232,0.3262,0.3311,0.3276,0.3417,0.3377,0.3371,0.337,0.331,0.3299,0.3341,0.3434,0.3434,0.3434,0.3434,0,0.2584,0.2591,0.2628,0.2634,0.2663,0.2713,0.2773,0.2829,0.2944,0.3046,0.3115,0.3214,0.3275,0.3362,0.3357,0.3425,0.3465,0.3396,0.3405,0.3318,0.3307,0.3279,0.3258,0.3437,0.3437,0.3436,0.3435,0,0.2541,0.2565,0.258,0.2628,0.2644,0.2666,0.2768,0.2836,0.2947,0.3085,0.3127,0.3294,0.3414,0.346,0.3538,0.3515,0.3464,0.3545,0.3434,0.3427,0.3353,0.3336,0.3208,0.3113,0.3554,0.3554,0.3554,0,0.2521,0.2523,0.2561,0.2586,0.2605,0.2654,0.2712,0.2818,0.2904,0.3139,0.3212,0.3383,0.3491,0.3615,0.3596,0.3601,0.349,0.3516,0.3422,0.336,0.3348,0.3162,0.3077,0.3357,0.3356,0.3355,0.3354,0,0.2496,0.2506,0.2532,0.2574,0.2617,0.266,0.2744,0.2801,0.2964,0.3086,0.326,0.3362,0.353,0.353,0.3568,0.3545,0.3368,0.3492,0.3465,0.3237,0.3,0.2909,0.3276,0.3344,0.3345,0.3345,0.3346,0.3346,0.249,0.2502,0.2546,0.2577,0.2619,0.2652,0.2661,0.2771,0.2872,0.3022,0.3191,0.3297,0.3441,0.3485,0.3453,0.3381,0.3297,0.3289,0.3287,0.3112,0.2971,0.3312,0.3364,0.3365,0.3366,0.3367,0.3368,0,0.2505,0.2526,0.2557,0.2581,0.2591,0.2623,0.2681,0.2675,0.2734,0.2902,0.3011,0.3148,0.3201,0.3276,0.3293,0.3197,0.2998,0.3132,0.2867,0.2804,0.3168,0.3113,0.3068,0.3068,0.3068,0.3068,0.3068,0.3068,0.2526,0.2556,0.2557,0.2547,0.2549,0.2515,0.2512,0.2512,0.2572,0.2638,0.2708,0.2813,0.3059,0.3217,0.3177,0.309,0.2855,0.2731,0.2703,0.3018,0.3032,0.3044,0.2988,0.2917,0.2917,0.2195,0.2191,0.2187]},{"header":{"parameterUnit":"m.s-1","parameterCategory":2,"la1":30.2991,"la2":30.254,"lo1":-89.0895,"lo2":-89.0444,"dy":0.0017,"dx":0.0017,"nx":28,"ny":28,"refTime":"2025-04-16T03:00:00:Z","depth":"0","parameterNumber":3,"parameterNumberName":"V-component_of_CURRENTS"},"data":[0,0,0,0,0,0,0,0,0,0,0,0,0,0,0,0,0,0,0,0,0,0,0,0,0,0,0,0,0,0,0,0,0,0,0,0,0,0,0,0,0,0,0,0,0,0,0,0,0,0,0,0,0,0,0,0,0,0,0.0314,0.0314,0,0.0278,0.0277,0.0277,0.0244,0.0244,0.0244,0.0244,0.018,0.0179,0.0177,0,0,0,0,0,0,0,0,0,0,0,0,0,0.0319,0.0319,0.0314,0.0314,0.0314,0.0278,0.0277,0.0276,0.0244,0.0244,0.0244,0.0243,0.0181,0.0179,0.0177,0,0,0,0,0,0,0,0,0,0,0,0,0,0.0302,0.0319,0.0314,0.0294,0.0292,0.0278,0.0277,0.0276,0.0244,0.0244,0.0244,0.0243,0.0181,0.0179,0.0177,0.0172,0,0,0.017,0.0169,0,0,0,0,0,0,0,0,0.0303,0.0302,0.0297,0.0296,0.0293,0.0266,0.0255,0.024,0.0245,0.0261,0.0244,0.0243,0.0207,0.0203,0.0196,0.0169,0.0166,0.017,0.0169,0.0168,0.0167,0,0,0,0,0,0,0,0.0304,0.0303,0.0299,0.0297,0.0295,0.0274,0.0271,0.0252,0.0236,0.026,0.0258,0.0256,0.0206,0.0198,0.0194,0.0165,0.017,0.0168,0.0167,0.0166,0.0135,0.0135,0,0,0,0,0,0,0.0314,0.0304,0.03,0.0298,0.0298,0.0274,0.0271,0.0274,0.0236,0.0231,0.0256,0.0254,0.0202,0.0197,0.0192,0.0201,0.0168,0.0166,0.0165,0.0134,0.0135,0.0135,0,0,0,0,0,0,0.0314,0.0314,0.0301,0.0301,0.0298,0.0275,0.0278,0.0274,0.0268,0.0234,0.0227,0.0255,0.0201,0.0195,0.0182,0.0197,0.0165,0.0163,0.0134,0.0135,0.0135,0.0207,0,0,0,0,0,0,0.0314,0.0314,0.0318,0.0302,0.0298,0.0303,0.0279,0.0273,0.0268,0.0265,0.0231,0.0225,0.0201,0.0186,0.018,0.0194,0.0161,0.0133,0.0134,0.0135,0.0204,0.021,0.0216,0,0,0,0,0,0.0315,0.0328,0.0319,0.0318,0.0305,0.0304,0.0301,0.0282,0.0268,0.0273,0.0249,0.0226,0.0187,0.0185,0.0178,0.0191,0.0133,0.0134,0.0135,0.0202,0.0209,0.0216,0,0,0,0,0,0,0.0331,0.0326,0.0315,0.0325,0.0318,0.0299,0.03,0.0287,0.0272,0.0267,0.0233,0.0225,0.0218,0.0194,0.0193,0.0184,0.0156,0.0156,0.0209,0.0216,0.0221,0.0236,0.0159,0,0,0,0,0,0.0337,0.0345,0.0334,0.0341,0.034,0.032,0.0316,0.0305,0.029,0.0282,0.026,0.0234,0.0217,0.0209,0.0187,0.0185,0.0153,0.0188,0.0194,0.0199,0.0205,0.0171,0.0175,0.0139,0.0139,0.0139,0,0,0.0345,0.0342,0.0346,0.0345,0.0335,0.0348,0.0317,0.0317,0.0326,0.0278,0.0281,0.0252,0.022,0.0217,0.0212,0.02,0.0191,0.02,0.0205,0.0209,0.0173,0.0176,0.0179,0.014,0.0139,0.0139,0,0,0.0369,0.0363,0.0379,0.0381,0.0375,0.0367,0.0371,0.0357,0.0349,0.0347,0.0315,0.0298,0.0272,0.0255,0.0242,0.0265,0.022,0.0257,0.0301,0.0268,0.0271,0.0273,0.0233,0.0231,0.0263,0.0263,0.0263,0,0.0378,0.0399,0.0383,0.0402,0.041,0.0382,0.0406,0.0396,0.038,0.0381,0.0357,0.0322,0.0291,0.0292,0.0298,0.0279,0.0249,0.028,0.0276,0.0277,0.0278,0.0237,0.0234,0.0266,0.0266,0.0266,0.0265,0,0.0418,0.0434,0.0446,0.0462,0.0469,0.0484,0.0475,0.0473,0.0457,0.0449,0.044,0.0394,0.0376,0.0362,0.0336,0.0333,0.0307,0.0286,0.0262,0.0286,0.0241,0.0237,0.0272,0.027,0.0269,0.0268,0,0,0.0439,0.0469,0.0473,0.0496,0.0504,0.0517,0.0531,0.0541,0.0563,0.0527,0.0547,0.0501,0.0473,0.0456,0.0418,0.0388,0.0361,0.0345,0.0342,0.0312,0.0284,0.0282,0.0276,0.0341,0.034,0.034,0.0249,0,0.0476,0.0529,0.0532,0.0583,0.0612,0.0598,0.0623,0.0626,0.062,0.0632,0.0577,0.0578,0.0512,0.0505,0.0464,0.0399,0.0353,0.0388,0.026,0.0256,0.0256,0.0273,0.0307,0.0232,0.0245,0.0244,0.0243,0,0.0515,0.055,0.0607,0.0656,0.0668,0.0692,0.0729,0.0751,0.0754,0.075,0.0729,0.0685,0.0643,0.0578,0.0462,0.0489,0.0388,0.0322,0.0316,0.0288,0.0247,0.0209,0.0222,0.0103,0.0235,0.0236,0.0237,0,0.0547,0.0602,0.0652,0.0669,0.0717,0.0738,0.0765,0.0786,0.0835,0.0828,0.0865,0.0781,0.077,0.0634,0.0493,0.0474,0.0363,0.0316,0.0212,0.021,0.0201,0.0199,0.0091,0.0213,0.0214,0.0214,0.0214,0,0.0589,0.0629,0.0672,0.0703,0.0775,0.0789,0.0871,0.0881,0.0935,0.103,0.0936,0.0985,0.0785,0.0699,0.0532,0.0377,0.0386,0.0224,0.0191,0.0227,0.0229,0.0093,0.0018,0.0211,0.0211,0.0212,0.0213,0,0.0617,0.0642,0.071,0.0769,0.0794,0.0849,0.0957,0.1034,0.1064,0.1183,0.1189,0.1143,0.1031,0.082,0.0611,0.0457,0.0208,0.0214,0.0268,0.0244,0.0032,-0.004,-0.0212,-0.028,0.0079,0.0079,0.0078,0,0.0637,0.0673,0.0761,0.0822,0.0853,0.0943,0.1029,0.1089,0.1192,0.1303,0.1379,0.1296,0.1278,0.0965,0.0654,0.0349,0.0198,0.0182,0.0145,0.0032,-0.0073,-0.0141,-0.019,0.0151,0.0151,0.0151,0.0152,0,0.0685,0.0712,0.0777,0.0903,0.0997,0.1115,0.124,0.1336,0.1447,0.1551,0.1672,0.1658,0.1371,0.1096,0.0675,0.0453,0.0108,0.0176,0.0046,-0.0032,-0.01,-0.0182,0.0189,0.0153,0.0153,0.0153,0.0153,0.0153,0.0727,0.0786,0.0883,0.1,0.1119,0.128,0.1393,0.1549,0.1722,0.1898,0.1879,0.1909,0.1525,0.0955,0.0633,0.0122,0.0092,-0.0018,-0.01,-0.0162,-0.0211,0.0166,0.0107,0.0107,0.0107,0.0106,0.0106,0,0.0795,0.0869,0.0983,0.1133,0.1276,0.1326,0.1539,0.1673,0.1888,0.2044,0.2134,0.1996,0.1499,0.0984,0.0303,-0.0059,-0.0226,-0.0256,-0.0344,-0.0387,-0.0057,-0.0034,-0.0108,-0.0108,-0.0107,-0.0107,-0.0107,-0.0107,0.0841,0.0958,0.1014,0.124,0.1353,0.1554,0.1677,0.1879,0.203,0.2236,0.2295,0.2302,0.1996,0.0726,-0.0096,-0.0299,-0.0549,-0.0613,-0.0748,-0.0511,-0.0495,-0.048,-0.0475,-0.064,-0.0641,-0.1027,-0.1031,-0.1034]}],[{"header":{"parameterUnit":"m.s-1","parameterCategory":2,"la1":30.2991,"la2":30.254,"lo1":-89.0895,"lo2":-89.0444,"dy":0.0017,"dx":0.0017,"nx":28,"ny":28,"refTime":"2025-04-16T03:00:00:Z","depth":"2","parameterNumber":2,"parameterNumberName":"U-component_of_CURRENTS"},"data":[0,0,0,0,0,0,0,0,0,0,0,0,0,0,0,0,0,0,0,0,0,0,0,0,0,0,0,0,0,0,0,0,0,0,0,0,0,0,0,0,0,0,0,0,0,0,0,0,0,0,0,0,0,0,0,0,0,0,0.2607,0.2608,0,0.263,0.2631,0.2631,0.2627,0.2627,0.2627,0.2627,0.2634,0.2634,0.2634,0,0,0,0,0,0,0,0,0,0,0,0,0,0.2575,0.2576,0.2607,0.2608,0.2608,0.263,0.2631,0.2631,0.2627,0.2627,0.2627,0.2627,0.2634,0.2634,0.2634,0,0,0,0,0,0,0,0,0,0,0,0,0,0.2591,0.2576,0.2607,0.2611,0.2611,0.263,0.2631,0.2631,0.2627,0.2627,0.2627,0.2626,0.2633,0.2634,0.2635,0.2644,0,0,0.2636,0.2637,0,0,0,0,0,0,0,0,0.259,0.2592,0.261,0.261,0.2611,0.2627,0.2622,0.2635,0.2627,0.2619,0.2627,0.2626,0.2632,0.2632,0.2635,0.2645,0.2645,0.2636,0.2637,0.2637,0.2637,0,0,0,0,0,0,0,0.2589,0.2591,0.2614,0.261,0.2611,0.2617,0.2618,0.2624,0.2625,0.262,0.262,0.2626,0.2632,0.2634,0.2635,0.2645,0.2636,0.2637,0.2637,0.2637,0.2703,0.2704,0,0,0,0,0,0,0.259,0.259,0.2614,0.2615,0.2602,0.2617,0.2619,0.2621,0.2625,0.2626,0.2626,0.2626,0.2633,0.2634,0.2635,0.2675,0.2637,0.2637,0.2638,0.2701,0.2703,0.2705,0,0,0,0,0,0,0.2589,0.2591,0.2613,0.2605,0.2608,0.2618,0.262,0.2622,0.2631,0.2631,0.2631,0.2635,0.2633,0.2634,0.2654,0.2674,0.2638,0.2638,0.27,0.2702,0.2704,0.2736,0,0,0,0,0,0,0.2588,0.2591,0.2594,0.2605,0.2609,0.2629,0.2621,0.2622,0.2636,0.2635,0.2639,0.2639,0.2633,0.2653,0.2654,0.2674,0.2639,0.2698,0.2701,0.2703,0.2733,0.2739,0.2743,0,0,0,0,0,0.2586,0.2592,0.2594,0.2597,0.2612,0.263,0.2633,0.2637,0.2636,0.2644,0.2651,0.2639,0.2671,0.2654,0.2656,0.2676,0.2697,0.27,0.2703,0.273,0.2737,0.2743,0,0,0,0,0,0,0.2579,0.2593,0.2595,0.2604,0.2619,0.2631,0.264,0.2644,0.2655,0.2657,0.2653,0.2654,0.2681,0.2677,0.2659,0.2705,0.2683,0.2687,0.2704,0.271,0.2716,0.2716,0.2639,0,0,0,0,0,0.2579,0.2587,0.2603,0.2611,0.262,0.2632,0.2641,0.2646,0.2658,0.2662,0.2666,0.2677,0.2695,0.2701,0.2713,0.2733,0.2748,0.275,0.2755,0.2759,0.2762,0.2813,0.2823,0.2715,0.2715,0.2715,0,0,0.2579,0.2588,0.2593,0.2611,0.2622,0.2639,0.2636,0.2654,0.2669,0.2662,0.2683,0.2696,0.2707,0.2733,0.2745,0.273,0.2799,0.2763,0.2767,0.2767,0.2817,0.2828,0.2837,0.2717,0.2717,0.2716,0,0,0.2582,0.2592,0.2599,0.2615,0.2637,0.2649,0.2657,0.2675,0.2683,0.2708,0.2713,0.2739,0.2757,0.2772,0.2782,0.2826,0.2828,0.2831,0.2853,0.2902,0.2911,0.2919,0.2953,0.2964,0.283,0.283,0.283,0,0.2582,0.259,0.2605,0.262,0.2633,0.2655,0.2669,0.2687,0.2709,0.2728,0.2719,0.2775,0.2778,0.2823,0.2835,0.2837,0.2861,0.2824,0.2909,0.2917,0.2925,0.2958,0.2969,0.2832,0.2832,0.2831,0.2831,0,0.2588,0.26,0.2609,0.2633,0.2652,0.2669,0.2697,0.272,0.2737,0.2761,0.281,0.2822,0.2857,0.2864,0.2859,0.2919,0.2918,0.2912,0.289,0.2938,0.2969,0.2981,0.2835,0.2834,0.2833,0.2833,0,0,0.2572,0.2606,0.2608,0.2618,0.2659,0.2672,0.2711,0.2753,0.2789,0.2818,0.2865,0.2896,0.2916,0.2929,0.2934,0.2966,0.3036,0.2961,0.2962,0.2989,0.3143,0.3116,0.3126,0.3049,0.3051,0.3053,0.3143,0,0.2571,0.259,0.2612,0.2637,0.265,0.2688,0.2725,0.2771,0.2814,0.2869,0.2905,0.2954,0.2939,0.2961,0.2996,0.3038,0.3068,0.3012,0.3097,0.3099,0.3065,0.3139,0.2865,0.2921,0.3154,0.3156,0.3158,0,0.2563,0.2579,0.2596,0.2638,0.2648,0.2671,0.2736,0.2776,0.2868,0.2907,0.2972,0.3007,0.3074,0.3043,0.3142,0.3111,0.3127,0.3145,0.3149,0.312,0.3094,0.2911,0.2933,0.3177,0.3175,0.3174,0.3173,0,0.253,0.2565,0.2574,0.2588,0.2644,0.2663,0.2701,0.2788,0.2846,0.294,0.301,0.3078,0.3147,0.3177,0.3225,0.3193,0.3326,0.3288,0.3275,0.3273,0.3053,0.3029,0.3344,0.3344,0.3344,0.3344,0.3343,0,0.2513,0.252,0.2558,0.2564,0.2592,0.2641,0.2701,0.2755,0.2867,0.2965,0.3033,0.3124,0.3188,0.3272,0.3268,0.3328,0.3371,0.3298,0.3305,0.3058,0.3034,0.326,0.3249,0.3347,0.3346,0.3346,0.3345,0,0.2473,0.2497,0.2511,0.2558,0.2574,0.2596,0.2698,0.2763,0.2872,0.3005,0.3046,0.32,0.3312,0.3361,0.3435,0.3411,0.3439,0.3436,0.314,0.3111,0.3334,0.3324,0.3434,0.3434,0.3434,0.3434,0.3434,0,0.2453,0.2455,0.2493,0.2517,0.2537,0.2586,0.2643,0.2747,0.2829,0.3052,0.312,0.3281,0.3366,0.3477,0.3442,0.3441,0.3482,0.3197,0.3082,0.3353,0.3349,0.3338,0.3328,0.2798,0.2793,0.2789,0.2785,0,0.2427,0.2438,0.2462,0.2505,0.2548,0.2591,0.2673,0.2723,0.2881,0.2989,0.314,0.322,0.3355,0.3244,0.3274,0.3227,0.3172,0.3115,0.3486,0.2831,0.2765,0.2758,0.2766,0.2747,0.2751,0.2754,0.2756,0.2758,0.2419,0.2429,0.2473,0.2504,0.2548,0.2578,0.2581,0.2678,0.2762,0.2867,0.3026,0.3045,0.3087,0.299,0.2894,0.2815,0.3034,0.2873,0.2881,0.2895,0.2818,0.2757,0.2723,0.2726,0.2729,0.2732,0.2734,0,0.2426,0.2448,0.2479,0.2502,0.2499,0.2548,0.2596,0.2566,0.2592,0.2697,0.2758,0.2555,0.25,0.2527,0.2354,0.2363,0.2274,0.2257,0.2108,0.2151,0.2188,0.2068,0.1777,0.1774,0.1771,0.1768,0,0,0.244,0.2466,0.2466,0.2442,0.2447,0.2408,0.2395,0.2356,0.2366,0.2297,0.2261,0.2419,0.2496,0.2118,0.2068,0.1895,0.1997,0.1813,0.2592,0.2463,0.2494,0.2569,0.2439,0,0,0,0,0]},{"header":{"parameterUnit":"m.s-1","parameterCategory":2,"la1":30.2991,"la2":30.254,"lo1":-89.0895,"lo2":-89.0444,"dy":0.0017,"dx":0.0017,"nx":28,"ny":28,"refTime":"2025-04-16T03:00:00:Z","depth":"2","parameterNumber":3,"parameterNumberName":"V-component_of_CURRENTS"},"data":[0,0,0,0,0,0,0,0,0,0,0,0,0,0,0,0,0,0,0,0,0,0,0,0,0,0,0,0,0,0,0,0,0,0,0,0,0,0,0,0,0,0,0,0,0,0,0,0,0,0,0,0,0,0,0,0,0,0,0.0224,0.0224,0,0.0187,0.0187,0.0186,0.0157,0.0157,0.0157,0.0157,0.0095,0.0094,0.0092,0,0,0,0,0,0,0,0,0,0,0,0,0,0.023,0.023,0.0224,0.0224,0.0223,0.0187,0.0187,0.0186,0.0157,0.0157,0.0157,0.0156,0.0096,0.0094,0.0092,0,0,0,0,0,0,0,0,0,0,0,0,0,0.0213,0.023,0.0224,0.0205,0.0203,0.0188,0.0187,0.0186,0.0157,0.0157,0.0157,0.0156,0.0096,0.0094,0.0092,0.0084,0,0,0.0085,0.0084,0,0,0,0,0,0,0,0,0.0214,0.0212,0.0209,0.0207,0.0204,0.0178,0.0166,0.0151,0.0157,0.0173,0.0157,0.0156,0.0121,0.0117,0.011,0.0081,0.0079,0.0085,0.0084,0.0083,0.0082,0,0,0,0,0,0,0,0.0215,0.0213,0.0208,0.0208,0.0206,0.0185,0.0183,0.0163,0.0148,0.0172,0.017,0.0168,0.012,0.0112,0.0108,0.0078,0.0085,0.0083,0.0082,0.0081,0.0048,0.0049,0,0,0,0,0,0,0.0224,0.0215,0.021,0.0207,0.021,0.0186,0.0183,0.0186,0.0149,0.0143,0.0168,0.0167,0.0116,0.011,0.0106,0.0115,0.0083,0.0081,0.008,0.0048,0.0048,0.0049,0,0,0,0,0,0,0.0225,0.0224,0.0211,0.0211,0.0208,0.0186,0.0189,0.0185,0.0181,0.0146,0.014,0.0169,0.0115,0.0109,0.0097,0.0112,0.008,0.0078,0.0047,0.0048,0.0048,0.0121,0,0,0,0,0,0,0.0225,0.0225,0.0229,0.0212,0.0208,0.0212,0.019,0.0184,0.018,0.0178,0.0145,0.0139,0.0114,0.0101,0.0095,0.0108,0.0076,0.0047,0.0048,0.0048,0.0118,0.0124,0.0129,0,0,0,0,0,0.0225,0.0238,0.023,0.0229,0.0215,0.0213,0.021,0.0192,0.0181,0.0186,0.0163,0.014,0.0101,0.0099,0.0092,0.0106,0.0046,0.0047,0.0048,0.0115,0.0123,0.0129,0,0,0,0,0,0,0.0242,0.0236,0.0226,0.0236,0.0229,0.0209,0.021,0.0198,0.0184,0.018,0.0147,0.0139,0.0133,0.0109,0.0107,0.0097,0.007,0.0069,0.0123,0.013,0.0135,0.015,0.0074,0,0,0,0,0,0.0249,0.0256,0.0245,0.0251,0.025,0.0231,0.0227,0.0217,0.0202,0.0195,0.0173,0.0148,0.0131,0.0123,0.0101,0.0098,0.0066,0.0101,0.0107,0.0112,0.0118,0.0084,0.0088,0.0052,0.0052,0.0052,0,0,0.0256,0.0253,0.0257,0.0255,0.0246,0.0258,0.0228,0.0229,0.0237,0.019,0.0194,0.0166,0.0134,0.013,0.0125,0.0113,0.0104,0.0113,0.0118,0.0122,0.0086,0.0089,0.0092,0.0053,0.0053,0.0052,0,0,0.028,0.0274,0.0289,0.0291,0.0285,0.0277,0.0282,0.0268,0.0261,0.0259,0.0228,0.0212,0.0185,0.0168,0.0155,0.0177,0.0133,0.0169,0.0213,0.018,0.0183,0.0185,0.0147,0.0145,0.0175,0.0175,0.0175,0,0.0289,0.0309,0.0293,0.0311,0.032,0.0292,0.0316,0.0306,0.029,0.0292,0.027,0.0235,0.0204,0.0204,0.021,0.0191,0.0162,0.0193,0.0188,0.019,0.019,0.0151,0.0148,0.0179,0.0178,0.0178,0.0177,0,0.0327,0.0344,0.0354,0.0371,0.0376,0.0392,0.0382,0.0381,0.0367,0.0358,0.035,0.0306,0.0288,0.0274,0.0248,0.0246,0.022,0.0198,0.0174,0.0199,0.0155,0.0151,0.0184,0.0182,0.0181,0.018,0,0,0.0349,0.0377,0.0382,0.0403,0.0412,0.0424,0.0437,0.0448,0.0469,0.0434,0.0454,0.041,0.0384,0.0366,0.0329,0.0299,0.0274,0.0258,0.0254,0.0226,0.0198,0.019,0.0183,0.0253,0.0253,0.0252,0.0165,0,0.0385,0.0437,0.0439,0.0488,0.0516,0.0503,0.0527,0.0531,0.0524,0.0535,0.0482,0.0482,0.0421,0.0415,0.0375,0.0309,0.0266,0.03,0.0174,0.017,0.0164,0.0179,0.0178,0.0102,0.016,0.0159,0.0159,0,0.0424,0.0457,0.0513,0.056,0.0571,0.0595,0.0631,0.0653,0.0654,0.065,0.0629,0.0587,0.0546,0.0484,0.0372,0.0397,0.0302,0.0236,0.0231,0.0196,0.0154,0.0086,0.0091,0.0151,0.0151,0.0152,0.0153,0,0.0455,0.0508,0.0558,0.0574,0.062,0.0641,0.0668,0.0688,0.0734,0.0726,0.0759,0.0679,0.0666,0.0536,0.0399,0.0383,0.027,0.0227,0.0122,0.0119,0.0081,0.0076,0.013,0.013,0.013,0.013,0.013,0,0.0497,0.0537,0.0578,0.0608,0.0679,0.0692,0.0772,0.0781,0.0831,0.0918,0.0828,0.0867,0.068,0.0594,0.0435,0.028,0.0291,0.0133,0.0101,0.0106,0.0104,0.0117,0.0116,0.0127,0.0128,0.0128,0.0129,0,0.0525,0.055,0.0615,0.0673,0.0697,0.0751,0.0855,0.0926,0.0954,0.1062,0.1068,0.1013,0.09,0.0703,0.05,0.0353,0.0184,0.0116,0.0134,0.0106,0.0039,0.0043,-0.0016,-0.0017,-0.0017,-0.0018,-0.0019,0,0.0544,0.058,0.0665,0.0724,0.0754,0.0842,0.0922,0.0979,0.1073,0.1169,0.1234,0.115,0.1111,0.0805,0.0513,0.0224,0.0188,0.0039,0.0002,0.0052,0.0026,0.0031,0.0037,-0.0031,-0.0031,-0.0032,-0.0032,0,0.0588,0.0615,0.0677,0.0799,0.0888,0.1001,0.1117,0.1202,0.1305,0.1387,0.1473,0.144,0.1164,0.0867,0.0477,0.0277,0.0083,0.0021,0.0068,0.0019,0.0034,0.001,0.0016,-0.0037,-0.0036,-0.0036,-0.0036,-0.0035,0.0626,0.068,0.0772,0.0885,0.1001,0.1149,0.1252,0.1386,0.153,0.1654,0.1623,0.1574,0.1258,0.0738,0.0406,0.005,0.007,-0.0072,-0.0069,-0.0066,-0.004,-0.0025,-0.0103,-0.0103,-0.0103,-0.0103,-0.0103,0,0.0682,0.0752,0.0861,0.1004,0.1129,0.1193,0.1385,0.1489,0.1657,0.1737,0.1776,0.1449,0.1124,0.076,0.0237,-0.0063,-0.0102,-0.0172,-0.0153,-0.0147,-0.0141,-0.0118,-0.0203,-0.0204,-0.0205,-0.0206,0,0,0.0718,0.0826,0.0879,0.1081,0.1191,0.1376,0.1485,0.1639,0.173,0.1779,0.1736,0.1653,0.1226,0.0829,0.0409,0.0108,0.0049,0.0037,0.0147,0.0225,0.0234,-0.0058,-0.001,0,0,0,0,0]}],[{"header":{"parameterUnit":"m.s-1","parameterCategory":2,"la1":30.2991,"la2":30.254,"lo1":-89.0895,"lo2":-89.0444,"dy":0.0017,"dx":0.0017,"nx":28,"ny":28,"refTime":"2025-04-16T03:00:00:Z","depth":"4","parameterNumber":2,"parameterNumberName":"U-component_of_CURRENTS"},"data":[0,0,0,0,0,0,0,0,0,0,0,0,0,0,0,0,0,0,0,0,0,0,0,0,0,0,0,0,0,0,0,0,0,0,0,0,0,0,0,0,0,0,0,0,0,0,0,0,0,0,0,0,0,0,0,0,0,0,0.1655,0.1656,0,0.1713,0.1713,0.1714,0.1769,0.177,0.1771,0.1771,0.1849,0.185,0.1851,0,0,0,0,0,0,0,0,0,0,0,0,0,0.1589,0.159,0.1655,0.1656,0.1657,0.1713,0.1713,0.1714,0.1769,0.177,0.1771,0.1772,0.1849,0.185,0.1852,0,0,0,0,0,0,0,0,0,0,0,0,0,0.1628,0.1591,0.1655,0.1692,0.1696,0.1713,0.1713,0.1714,0.1768,0.177,0.1771,0.1772,0.1848,0.185,0.1852,0.1838,0,0,0.1858,0.1858,0,0,0,0,0,0,0,0,0.1626,0.163,0.1686,0.169,0.1694,0.1736,0.1719,0.1757,0.1768,0.1739,0.1771,0.1773,0.1813,0.1818,0.1824,0.1842,0.1845,0.1858,0.1859,0.186,0.186,0,0,0,0,0,0,0,0.1623,0.1628,0.1676,0.1687,0.1692,0.1705,0.1712,0.1726,0.1768,0.1742,0.1747,0.1755,0.1816,0.1822,0.1826,0.1846,0.1858,0.1859,0.1861,0.1861,0.1976,0.1978,0,0,0,0,0,0,0.1618,0.1625,0.1675,0.1678,0.1664,0.1705,0.1713,0.172,0.1767,0.1776,0.1754,0.1757,0.1818,0.1824,0.1829,0.1917,0.186,0.1862,0.1863,0.1974,0.1977,0.1979,0,0,0,0,0,0,0.1616,0.1622,0.1672,0.1655,0.1662,0.1705,0.1713,0.1721,0.1765,0.1776,0.1785,0.1795,0.1819,0.1826,0.1878,0.1917,0.1862,0.1864,0.1972,0.1975,0.1978,0.2028,0,0,0,0,0,0,0.1614,0.1621,0.1642,0.1654,0.1663,0.1705,0.1712,0.1721,0.1767,0.1773,0.1814,0.182,0.182,0.1876,0.188,0.1918,0.1866,0.197,0.1973,0.1977,0.2024,0.2032,0.2039,0,0,0,0,0,0.1611,0.1628,0.1642,0.1649,0.1685,0.1706,0.1712,0.1745,0.1768,0.179,0.1825,0.1821,0.1902,0.1879,0.1884,0.1923,0.1968,0.1972,0.1977,0.202,0.2031,0.2039,0,0,0,0,0,0,0.1612,0.1635,0.1651,0.1676,0.1701,0.1716,0.1745,0.1765,0.1809,0.1829,0.184,0.1849,0.191,0.1911,0.1885,0.1968,0.1936,0.1942,0.1968,0.1978,0.1985,0.1983,0.1867,0,0,0,0,0,0.162,0.1643,0.1663,0.1688,0.1703,0.1732,0.1753,0.1775,0.1806,0.1829,0.1858,0.1892,0.1923,0.1948,0.1971,0.2013,0.2018,0.2044,0.2052,0.2058,0.2061,0.2109,0.2121,0.1993,0.1993,0.1993,0,0,0.1629,0.1646,0.1661,0.1691,0.1716,0.174,0.1749,0.1791,0.1821,0.1829,0.1894,0.1922,0.1942,0.1992,0.202,0.2003,0.2098,0.2064,0.2069,0.2068,0.2114,0.2127,0.2138,0.1996,0.1995,0.1995,0,0,0.1642,0.1674,0.1693,0.1716,0.1758,0.1773,0.1794,0.1831,0.1865,0.1919,0.1938,0.199,0.2036,0.2058,0.2073,0.2137,0.2137,0.2155,0.2192,0.2238,0.2249,0.2258,0.2278,0.2289,0.2159,0.2159,0.2159,0,0.1657,0.1678,0.1704,0.1726,0.1752,0.1792,0.1818,0.1852,0.1906,0.194,0.1952,0.2048,0.2065,0.2124,0.2149,0.2154,0.2174,0.2152,0.2247,0.2257,0.2266,0.2283,0.2295,0.2162,0.2161,0.2161,0.2161,0,0.1669,0.1703,0.1719,0.176,0.1791,0.1824,0.1865,0.1915,0.1964,0.1999,0.2085,0.2115,0.2174,0.219,0.2189,0.2266,0.2258,0.225,0.222,0.2281,0.2296,0.2307,0.2166,0.2165,0.2164,0.2163,0,0,0.1654,0.1716,0.1726,0.1752,0.1814,0.1835,0.1899,0.1959,0.2016,0.2081,0.2151,0.2212,0.2249,0.2268,0.2285,0.2322,0.2397,0.2319,0.232,0.233,0.2493,0.2334,0.2329,0.2415,0.2417,0.2419,0.2477,0,0.166,0.1701,0.1735,0.1788,0.1812,0.1873,0.1927,0.1995,0.2062,0.2141,0.2198,0.2273,0.2273,0.2318,0.2358,0.2394,0.2429,0.2381,0.2439,0.244,0.2284,0.2338,0.2426,0.2485,0.2488,0.2489,0.2491,0,0.1651,0.1683,0.1731,0.1804,0.1823,0.1869,0.1968,0.2025,0.2139,0.2197,0.2286,0.2335,0.2419,0.2403,0.2498,0.2474,0.2492,0.2504,0.2507,0.2346,0.23,0.2413,0.2509,0.2508,0.2507,0.2505,0.2504,0,0.1606,0.1677,0.1717,0.1742,0.1831,0.188,0.1942,0.2053,0.2112,0.2247,0.2307,0.2411,0.2479,0.2526,0.2567,0.255,0.2651,0.2626,0.2493,0.2482,0.2585,0.2575,0.2684,0.2684,0.2684,0.2684,0.2684,0,0.1576,0.1613,0.1708,0.1728,0.1793,0.187,0.1958,0.2039,0.2158,0.2227,0.2343,0.2401,0.2519,0.2586,0.26,0.2579,0.2686,0.2503,0.249,0.2605,0.2596,0.2592,0.2581,0.2686,0.2686,0.2685,0.2685,0,0.1514,0.1576,0.1628,0.1734,0.1772,0.1825,0.1953,0.2008,0.2142,0.2235,0.2282,0.2429,0.2517,0.2598,0.2682,0.2607,0.2608,0.2572,0.2691,0.2684,0.2396,0.2387,0.2418,0.2413,0.2408,0.2405,0.2402,0,0.148,0.1504,0.162,0.1652,0.1705,0.1795,0.1849,0.1988,0.2042,0.222,0.2245,0.2391,0.2469,0.2461,0.2557,0.2576,0.2547,0.2516,0.2443,0.2386,0.2372,0.2369,0.2366,0.2395,0.2394,0.2393,0.2392,0,0.1418,0.1478,0.152,0.1585,0.1646,0.1698,0.1789,0.1814,0.1966,0.2104,0.2158,0.2205,0.23,0.2363,0.2406,0.2409,0.2516,0.247,0.2478,0.241,0.2359,0.2348,0.235,0.2377,0.2379,0.238,0.2381,0,0.1381,0.1391,0.1453,0.1495,0.1565,0.1576,0.1637,0.1693,0.1764,0.196,0.1974,0.2129,0.2277,0.2277,0.231,0.2312,0.2268,0.217,0.2192,0.221,0.2114,0.2018,0.1922,0,0,0,0,0,0.1328,0.1318,0.1353,0.1377,0.1438,0.1477,0.158,0.1643,0.1792,0.178,0.1872,0.1948,0.2006,0.2089,0.2051,0.2214,0.2275,0.2156,0.2173,0.2294,0.2311,0.2217,0,0,0,0,0,0,0.1288,0.1314,0.1312,0.127,0.1269,0.131,0.1375,0.147,0.1475,0.1643,0.1698,0.1817,0.192,0.2017,0.2013,0.2035,0.1999,0.2257,0.2251,0.2284,0.23,0.2314,0.2223,0,0,0,0,0]},{"header":{"parameterUnit":"m.s-1","parameterCategory":2,"la1":30.2991,"la2":30.254,"lo1":-89.0895,"lo2":-89.0444,"dy":0.0017,"dx":0.0017,"nx":28,"ny":28,"refTime":"2025-04-16T03:00:00:Z","depth":"4","parameterNumber":3,"parameterNumberName":"V-component_of_CURRENTS"},"data":[0,0,0,0,0,0,0,0,0,0,0,0,0,0,0,0,0,0,0,0,0,0,0,0,0,0,0,0,0,0,0,0,0,0,0,0,0,0,0,0,0,0,0,0,0,0,0,0,0,0,0,0,0,0,0,0,0,0,0.007,0.007,0,0.0047,0.0047,0.0047,0.0028,0.0028,0.0028,0.0028,-0.0018,-0.002,-0.0021,0,0,0,0,0,0,0,0,0,0,0,0,0,0.0072,0.0072,0.007,0.007,0.007,0.0047,0.0047,0.0047,0.0028,0.0028,0.0028,0.0028,-0.0018,-0.0019,-0.0021,0,0,0,0,0,0,0,0,0,0,0,0,0,0.0062,0.0072,0.007,0.0059,0.0058,0.0047,0.0047,0.0047,0.0029,0.0028,0.0028,0.0028,-0.0018,-0.0019,-0.0021,-0.0028,0,0,-0.0026,-0.0027,0,0,0,0,0,0,0,0,0.0062,0.0062,0.0061,0.006,0.0058,0.0041,0.003,0.0021,0.0029,0.0039,0.0028,0.0028,-0.0,-0.0003,-0.0008,-0.003,-0.0032,-0.0026,-0.0027,-0.0028,-0.0029,0,0,0,0,0,0,0,0.0063,0.0062,0.006,0.006,0.0059,0.0046,0.0044,0.0028,0.002,0.0038,0.0037,0.0035,-0.0001,-0.0006,-0.0009,-0.0033,-0.0026,-0.0028,-0.0029,-0.003,-0.0056,-0.0056,0,0,0,0,0,0,0.0069,0.0063,0.0061,0.006,0.0061,0.0046,0.0044,0.0046,0.002,0.0016,0.0036,0.0035,-0.0003,-0.0007,-0.0011,-0.0001,-0.0028,-0.003,-0.0031,-0.0056,-0.0056,-0.0056,0,0,0,0,0,0,0.0069,0.0069,0.0062,0.0061,0.006,0.0046,0.0049,0.0046,0.0045,0.0019,0.0014,0.0038,-0.0004,-0.0009,-0.0017,-0.0004,-0.003,-0.0032,-0.0057,-0.0056,-0.0056,0.0006,0,0,0,0,0,0,0.0069,0.007,0.0073,0.0062,0.006,0.0064,0.0049,0.0046,0.0044,0.0043,0.0019,0.0014,-0.0004,-0.0014,-0.0018,-0.0007,-0.0033,-0.0057,-0.0057,-0.0056,0.0003,0.0008,0.0012,0,0,0,0,0,0.007,0.0079,0.0074,0.0073,0.0066,0.0065,0.0063,0.0051,0.0045,0.0049,0.0033,0.0015,-0.0014,-0.0015,-0.002,-0.0009,-0.0058,-0.0057,-0.0056,0.0001,0.0007,0.0012,0,0,0,0,0,0,0.008,0.0077,0.0072,0.0079,0.0075,0.0062,0.0064,0.0057,0.0048,0.0046,0.002,0.0015,0.0011,-0.0009,-0.0009,-0.0016,-0.0039,-0.0039,0.0006,0.0012,0.0016,0.003,-0.0035,0,0,0,0,0,0.0085,0.0091,0.0084,0.009,0.009,0.0078,0.0076,0.007,0.006,0.0056,0.004,0.0022,0.0009,0.0004,-0.0014,-0.0015,-0.0041,-0.0013,-0.0008,-0.0004,0.0003,-0.0025,-0.0022,-0.0053,-0.0053,-0.0053,0,0,0.009,0.0089,0.0092,0.0092,0.0087,0.0098,0.0076,0.0078,0.0088,0.0051,0.0058,0.0036,0.0011,0.001,0.0007,-0.0003,-0.001,-0.0003,0.0001,0.0006,-0.0024,-0.0021,-0.0018,-0.0053,-0.0053,-0.0053,0,0,0.0106,0.0104,0.0115,0.0118,0.0116,0.0112,0.0116,0.0108,0.0106,0.0107,0.0084,0.0073,0.0053,0.0041,0.0032,0.005,0.0014,0.0043,0.0081,0.0054,0.0056,0.0058,0.0026,0.0025,0.0048,0.0048,0.0048,0,0.0112,0.0128,0.0118,0.0133,0.0141,0.0124,0.0143,0.0139,0.013,0.0133,0.0116,0.0093,0.0069,0.0073,0.0079,0.0062,0.0038,0.0065,0.0061,0.0062,0.0063,0.003,0.0027,0.0051,0.0051,0.005,0.005,0,0.0139,0.0154,0.0162,0.0177,0.0184,0.0198,0.0195,0.0198,0.0191,0.0187,0.0185,0.0151,0.0141,0.0129,0.011,0.011,0.0087,0.0069,0.005,0.007,0.0033,0.003,0.0055,0.0054,0.0053,0.0053,0,0,0.0149,0.0177,0.0181,0.0201,0.0212,0.0223,0.024,0.0253,0.0274,0.0251,0.0269,0.0239,0.0221,0.0208,0.018,0.0155,0.0136,0.0121,0.0118,0.0095,0.0072,0.0051,0.0045,0.0117,0.0117,0.0117,0.0044,0,0.0175,0.0216,0.0222,0.0265,0.0288,0.0287,0.0312,0.032,0.0319,0.0331,0.0293,0.0297,0.0252,0.025,0.0219,0.016,0.013,0.0157,0.0051,0.0048,0.0032,0.0041,0.0116,0.0041,0.004,0.0039,0.0039,0,0.02,0.0228,0.0275,0.0322,0.0333,0.0357,0.0396,0.0418,0.0426,0.0424,0.0413,0.0382,0.0351,0.0306,0.0214,0.0234,0.016,0.0105,0.0101,0.0059,0.0021,0.0015,0.0032,0.0032,0.0033,0.0033,0.0034,0,0.0217,0.0265,0.0308,0.0323,0.037,0.0395,0.0424,0.0449,0.0479,0.0487,0.0497,0.0453,0.0432,0.0341,0.0226,0.022,0.0113,0.0089,-0.0002,-0.0005,0.0009,0.0008,0.0018,0.0018,0.0018,0.0018,0.0019,0,0.0242,0.0277,0.0322,0.0348,0.041,0.0433,0.0499,0.0517,0.0552,0.0593,0.0551,0.0552,0.0439,0.0362,0.0249,0.0116,0.0128,0.0007,-0.0022,0.0035,0.0038,0.0006,0.0005,0.0016,0.0016,0.0017,0.0017,0,0.0251,0.028,0.0335,0.0395,0.042,0.0467,0.0549,0.0594,0.0622,0.0668,0.0671,0.0625,0.053,0.0404,0.0255,0.0151,0.0022,-0.0032,0.0042,0.0017,-0.0085,-0.0081,-0.0135,-0.0137,-0.0138,-0.0139,-0.0139,0,0.0257,0.0286,0.0366,0.0407,0.0437,0.0512,0.0567,0.0623,0.0671,0.0705,0.0721,0.0655,0.0602,0.0389,0.0243,0.0035,-0.0004,-0.0078,-0.0085,-0.0076,-0.0099,-0.0094,-0.0089,-0.0141,-0.0142,-0.0142,-0.0142,0,0.0268,0.0297,0.0342,0.0426,0.0489,0.0568,0.0647,0.0688,0.0752,0.0771,0.0767,0.0665,0.0556,0.0391,0.0233,0.0077,-0.0031,-0.009,-0.0089,-0.0096,-0.0084,-0.0104,-0.0098,-0.0146,-0.0145,-0.0145,-0.0145,0,0.0273,0.0303,0.0363,0.0439,0.052,0.06,0.0648,0.0707,0.0759,0.0801,0.0791,0.0684,0.063,0.041,0.0259,0.0114,0.0065,-0.0001,-0.0005,-0.0003,0.0052,0.0088,0.0058,0,0,0,0,0,0.0274,0.0306,0.0372,0.0456,0.0538,0.0592,0.0689,0.0733,0.0792,0.0798,0.0804,0.0705,0.0501,0.0415,0.0267,0.0211,0.002,0.0027,-0.0062,-0.0167,-0.0162,-0.0123,0,0,0,0,0,0,0.0272,0.0325,0.0361,0.0455,0.0518,0.0613,0.0681,0.0726,0.0738,0.0774,0.0678,0.0643,0.0452,0.059,0.0257,0.0213,0.0128,-0.0059,-0.0063,-0.0169,-0.0165,-0.0162,-0.012,0,0,0,0,0]}]]